Weather History for Fremont, NE

Change the Weather History Date:

Tuesday, July 3, 2012

  Actual Average Record
Temperature  
Mean Temperature 88 °F -  
Max Temperature 97 °F 88 °F 105 °F (1990)
Min Temperature 78 °F 64 °F 47 °F (1968)
Cooling Degree Days 22    
Growing Degree Days 38 (Base 50)    
Moisture  
Dew Point 66 °F    
Average Humidity 50    
Maximum Humidity 63    
Minimum Humidity 31    
Precipitation  
Precipitation 0.00 in - - ()
Sea Level Pressure  
Sea Level Pressure 29.82 in    
Wind  
Wind Speed 10 mph (South)    
Max Wind Speed 13 mph    
Max Gust Speed 20 mph    
Visibility 10 miles    
Events      
Averages and records for this station are not official NWS values.
T = Trace of Precipitation, MM = Missing Value Source: NWS Daily Summary

Daily Weather History Graph

Daily Weather History Graph

Search for Another Location

Airport:

Trip Planner

Search our weather history database for the weather conditions in past years. The results will help you decide how hot, cold, wet, or windy it might be!

Date:

Astronomy

Jul. 03, 2012 Rise Set
Actual Time 5:57 AM CDT 9:03 PM CDT
Civil Twilight 5:23 AM CDT 9:36 PM CDT
Nautical Twilight 4:40 AM CDT 10:19 PM CDT
Astronomical Twilight 3:49 AM CDT 11:10 PM CDT
Moon 8:57 PM CDT (7/3) 5:52 AM CDT (7/3)
Length of Visible Light 16h 12m
Length of Day
15h 05m
Full, 100% of the Moon is Illuminated
Jul 3
Full
Jul 3
Full
Jul 10
Last Quarter
Jul 18
New
Jul 26
First Quarter

Hourly Weather History & Observations

Time (CDT) Temp. Heat Index Dew Point Humidity Pressure Visibility Wind Dir Wind Speed Gust Speed Precip Events Conditions
12:15 AM 82.4 °F 85.0 °F 67.1 °F 60% 29.87 in 10.0 mi SSE 11.5 mph - N/A   Clear
12:35 AM 82.0 °F 84.5 °F 66.9 °F 60% 29.86 in 10.0 mi SSE 12.7 mph 16.1 mph N/A   Clear
12:55 AM 81.5 °F 83.9 °F 66.7 °F 61% 29.86 in 10.0 mi SSE 9.2 mph - N/A   Clear
1:15 AM 80.6 °F 82.9 °F 66.9 °F 63% 29.86 in 10.0 mi SSE 9.2 mph - N/A   Clear
1:35 AM 80.4 °F 82.7 °F 66.6 °F 63% 29.86 in 10.0 mi SSE 8.1 mph - N/A   Clear
1:55 AM 79.9 °F - 66.4 °F 63% 29.86 in 10.0 mi SSE 6.9 mph - N/A   Clear
2:35 AM 80.6 °F 82.5 °F 65.7 °F 60% 29.85 in 10.0 mi SSE 9.2 mph - N/A   Clear
2:55 AM 80.2 °F 82.2 °F 65.5 °F 61% 29.84 in 10.0 mi South 9.2 mph - N/A   Clear
3:15 AM 79.9 °F - 65.5 °F 61% 29.84 in 10.0 mi South 10.4 mph - N/A   Clear
3:35 AM 79.7 °F - 65.3 °F 61% 29.83 in 10.0 mi South 10.4 mph - N/A   Clear
3:55 AM 79.7 °F - 64.9 °F 61% 29.83 in 10.0 mi South 12.7 mph 17.3 mph N/A   Clear
4:15 AM 79.3 °F - 64.8 °F 61% 29.83 in 10.0 mi South 9.2 mph - N/A   Clear
4:35 AM 79.0 °F - 64.6 °F 61% 29.83 in 10.0 mi South 9.2 mph - N/A   Clear
4:55 AM 78.4 °F - 64.6 °F 62% 29.83 in 10.0 mi South 10.4 mph - N/A   Clear
5:15 AM 78.8 °F - 64.4 °F 61% 29.83 in 10.0 mi South 8.1 mph - N/A   Clear
5:35 AM 78.8 °F - 64.4 °F 61% 29.83 in 10.0 mi South 11.5 mph - N/A   Clear
5:55 AM 78.6 °F - 64.4 °F 62% 29.83 in 10.0 mi South 9.2 mph - N/A   Clear
6:15 AM 78.4 °F - 64.4 °F 62% 29.82 in 10.0 mi South 9.2 mph - N/A   Clear
6:35 AM 78.8 °F - 64.4 °F 61% 29.82 in 10.0 mi South 9.2 mph 16.1 mph N/A   Clear
6:55 AM 78.6 °F - 64.4 °F 62% 29.82 in 10.0 mi South 10.4 mph 18.4 mph N/A   Clear
7:15 AM 78.8 °F - 64.6 °F 62% 29.82 in 10.0 mi South 9.2 mph 17.3 mph N/A   Clear
7:35 AM 79.2 °F - 64.8 °F 61% 29.83 in 10.0 mi SSW 8.1 mph - N/A   Clear
7:55 AM 79.7 °F - 65.1 °F 61% 29.84 in 10.0 mi SSW 9.2 mph - N/A   Clear
8:15 AM 80.6 °F 82.5 °F 65.5 °F 60% 29.84 in 10.0 mi South 8.1 mph - N/A   Clear
8:35 AM 81.1 °F 83.1 °F 65.5 °F 59% 29.84 in 10.0 mi South 11.5 mph - N/A   Clear
8:55 AM 82.0 °F 83.9 °F 65.5 °F 57% 29.84 in 10.0 mi South 9.2 mph - N/A   Clear
9:15 AM 83.3 °F 85.3 °F 65.8 °F 55% 29.84 in 10.0 mi South 9.2 mph - N/A   Clear
9:35 AM 84.0 °F 86.3 °F 66.2 °F 55% 29.84 in 10.0 mi SSW 8.1 mph - N/A   Clear
9:55 AM 85.1 °F 87.1 °F 65.7 °F 52% 29.85 in 10.0 mi SSW 9.2 mph 17.3 mph N/A   Clear
10:15 AM 86.2 °F 88.8 °F 66.6 °F 52% 29.84 in 10.0 mi SSW 10.4 mph - N/A   Clear
10:35 AM 86.9 °F 89.3 °F 66.0 °F 50% 29.84 in 10.0 mi South 12.7 mph 17.3 mph N/A   Clear
10:55 AM 88.0 °F 90.3 °F 66.2 °F 48% 29.84 in 10.0 mi SSW 8.1 mph - N/A   Clear
11:15 AM 88.7 °F 90.8 °F 65.3 °F 46% 29.84 in 10.0 mi South 12.7 mph 17.3 mph N/A   Clear
11:35 AM 89.4 °F 91.9 °F 66.2 °F 46% 29.84 in 10.0 mi SSW 12.7 mph - N/A   Clear
11:55 AM 90.7 °F 93.6 °F 66.4 °F 45% 29.84 in 10.0 mi SSW 11.5 mph - N/A   Clear
12:15 PM 91.0 °F 94.3 °F 66.9 °F 45% 29.84 in 10.0 mi South 10.4 mph - N/A   Clear
12:35 PM 91.4 °F 94.5 °F 66.6 °F 44% 29.84 in 10.0 mi SSW 11.5 mph 17.3 mph N/A   Clear
12:55 PM 92.3 °F 95.1 °F 66.2 °F 42% 29.84 in 10.0 mi South 9.2 mph - N/A   Clear
1:15 PM 93.2 °F 96.2 °F 66.6 °F 41% 29.84 in 10.0 mi South 12.7 mph 19.6 mph N/A   Clear
1:35 PM 93.7 °F 97.7 °F 67.3 °F 42% 29.83 in 10.0 mi SSW 9.2 mph - N/A   Clear
1:55 PM 94.6 °F 98.3 °F 66.7 °F 40% 29.83 in 10.0 mi South 10.4 mph 17.3 mph N/A   Clear
2:15 PM 94.5 °F 98.5 °F 67.3 °F 41% 29.83 in 10.0 mi South 11.5 mph - N/A   Clear
2:35 PM 95.9 °F 100.1 °F 66.9 °F 39% 29.83 in 10.0 mi South 10.4 mph 16.1 mph N/A   Clear
2:55 PM 95.7 °F 99.8 °F 67.1 °F 39% 29.83 in 10.0 mi SSW 10.4 mph 17.3 mph N/A   Clear
3:15 PM 96.4 °F 100.0 °F 66.2 °F 37% 29.83 in 10.0 mi South 9.2 mph 16.1 mph N/A   Clear
3:35 PM 96.8 °F 100.7 °F 66.7 °F 37% 29.82 in 10.0 mi SSW 10.4 mph - N/A   Clear
3:55 PM 96.8 °F 100.1 °F 66.0 °F 36% 29.82 in 10.0 mi SSW 10.4 mph 16.1 mph N/A   Clear
4:15 PM 97.5 °F 100.8 °F 66.0 °F 35% 29.82 in 10.0 mi South 11.5 mph 16.1 mph N/A   Clear
4:35 PM 97.2 °F 100.2 °F 65.5 °F 35% 29.81 in 10.0 mi SSW 10.4 mph - N/A   Clear
4:55 PM 97.7 °F 100.0 °F 64.4 °F 33% 29.81 in 10.0 mi SSW 10.4 mph 17.3 mph N/A   Clear
5:15 PM 97.3 °F 98.4 °F 62.2 °F 31% 29.80 in 10.0 mi SSW 11.5 mph 18.4 mph N/A   Clear
5:55 PM 97.0 °F 99.9 °F 65.1 °F 35% 29.79 in 10.0 mi SSW 9.2 mph - N/A   Clear
6:15 PM 96.4 °F 99.4 °F 65.1 °F 36% 29.78 in 10.0 mi SSW 5.8 mph - N/A   Clear
6:35 PM 96.4 °F 99.4 °F 65.3 °F 36% 29.78 in 10.0 mi South 8.1 mph - N/A   Clear
6:55 PM 95.7 °F 98.7 °F 65.3 °F 37% 29.78 in 10.0 mi South 8.1 mph - N/A   Clear
7:15 PM 94.8 °F 96.7 °F 64.4 °F 36% 29.77 in 10.0 mi South 8.1 mph - N/A   Clear
7:35 PM 93.6 °F 95.9 °F 65.3 °F 39% 29.77 in 10.0 mi SSE 6.9 mph - N/A   Clear
7:55 PM 92.5 °F 95.9 °F 66.9 °F 43% 29.77 in 10.0 mi South 9.2 mph - N/A   Clear
8:15 PM 91.2 °F 95.0 °F 68.0 °F 46% 29.77 in 10.0 mi SSE 8.1 mph - N/A   Clear
8:35 PM 89.8 °F 92.9 °F 66.9 °F 47% 29.77 in 10.0 mi SSE 6.9 mph - N/A   Clear
8:55 PM 89.1 °F 91.3 °F 66.0 °F 46% 29.77 in 10.0 mi SSE 6.9 mph - N/A   Clear
9:15 PM 88.2 °F 91.3 °F 67.1 °F 50% 29.77 in 10.0 mi SSE 9.2 mph - N/A   Clear
9:35 PM 87.8 °F 91.1 °F 67.5 °F 51% 29.78 in 10.0 mi SSE 9.2 mph - N/A   Clear
9:55 PM 87.1 °F 90.6 °F 67.8 °F 53% 29.79 in 10.0 mi SSE 5.8 mph - N/A   Clear
10:15 PM 86.9 °F 90.3 °F 67.8 °F 53% 29.79 in 10.0 mi SSE 8.1 mph - N/A   Clear
10:35 PM 86.9 °F 90.3 °F 68.0 °F 53% 29.79 in 10.0 mi SSE 9.2 mph - N/A   Clear
10:55 PM 86.4 °F 89.4 °F 67.6 °F 53% 29.79 in 10.0 mi SSE 8.1 mph - N/A   Clear
11:15 PM 86.4 °F 89.0 °F 67.1 °F 52% 29.79 in 10.0 mi SSE 11.5 mph - N/A   Clear
11:35 PM 86.4 °F 89.0 °F 67.1 °F 52% 29.79 in 10.0 mi South 10.4 mph - N/A   Clear
11:55 PM 86.4 °F 88.7 °F 66.2 °F 51% 29.79 in 10.0 mi South 12.7 mph 18.4 mph N/A   Clear